Location: Lecco
(45.8566°N, 9.3977°E)
Time: 07:49:56
(UTC+02:00)

Altair - Pass Details

Date: 23 August 2020
Orbit: 1501 x 1682 km, 47.2° (Epoch: 25 September)

Event Time Altitude Azimuth Distance (km) Brightness Sun altitude
Rises 23:09:09 0° 208° (SSW) 4,904 9.9 -25.4°
Enters shadow 23:11:51 - 203° (SSW) 4,120 9.5 -25.7°
Reaches altitude 10° 23:12:37 10° 201° (SSW) 3,904 - -25.8°
Maximum altitude 23:21:29 38° 138° (SE) 2,306 - -26.7°
Exits shadow 23:25:45 27° 94° (E) 2,739 8.5 -27.1°
Drops below altitude 10° 23:30:07 10° 75° (ENE) 3,798 9.4 -27.5°
Sets 23:33:25 0° 67° (ENE) 4,759 10.0 -27.8°
